Location: Castelnau
(43.6639°N, 0.8431°W)
Time: 19:13:16
(UTC+00:00)

Cosmos 1707 Rocket - Pass Details

Date: 13 January 2026
Orbit: 598 x 624 km, 82.5° (Epoch: 10 February)

Event Time Altitude Azimuth Distance (km) Brightness Sun altitude
Rises 06:39:05 0° 352° (N) 2,856 6.7 -10.0°
Reaches altitude 10° 06:41:18 10° 354° (N) 1,950 5.9 -9.6°
Maximum altitude 06:45:37 80° 81° (E) 616 3.6 -8.9°
Drops below altitude 10° 06:49:55 10° 169° (S) 1,945 6.6 -8.1°
Sets 06:52:08 0° 171° (S) 2,847 7.4 -7.8°
